www.pogodaiklimat.ru

Погода и климат >> Архив погоды >> Украина >> Новомиргород


ПОГОДА в Новомиргороде

  • Прогноз погоды в Новомиргороде
  • Монитор погоды в Новомиргороде

АРХИВ ПОГОДЫ в Новомиргороде

Время (UTC), дата Ветер
(напр.,м/с)
 
Видим.   Явления Облачность Т
(С)
Тd
(С)
f
(%)
Тe
(С)
Тes
(С)
Комфортность P
(гПа)
Po
(гПа)
Тmin
(С)
Tmax
(С)
R
(мм)
R24
(мм)
S
(см)
15 12.08 штиль 0 10 км ясно +29.9 +14.5 39 +32 +35 жарко 1016.6 1000.0
18 12.08 штиль 0 10 км ясно +23.7 +16.5 64 +27 +27 жарко 1017.2 1000.2 +30.5
21 12.08 ЮВ 1 10 км ясно +20.6 +16.2 76 +25 +25 комфорт 1017.2 1000.1
00 13.08 ЮВ 1 10 км ясно +18.6 +14.9 79 +20 +20 1014.4 997.3
03 13.08 ЮВ 1 10 км ясно +17.8 +15.1 84 +19 +19 1016.7 999.4
06 13.08 ЮВ 2 10 км ясно +23.9 +17.6 68 +28 +34 душно 1016.0 999.1 +17.4
09 13.08 Ю 3 10 км ясно +31.2 +16.7 42 +35 +46 очень
душно
1014.7 998.2
12 13.08 Ю 3 10 км 4/4 1000 м
[Cu hum]
+32.7 +17.7 41 +37 +43 очень
душно
1010.9 994.7
15 13.08 Ю 3 10 км 1/1 1000 м
[Cu hum]
+32.5 +16.7 39 +36 +37 очень
душно
1012.4 996.0
18 13.08 Ю 2 10 км ясно +28.7 +16.9 49 +32 +32 душно 1013.5 996.9 +33.5
21 13.08 Ю 1 10 км ясно +23.9 +15.1 58 +27 +27 жарко 1014.1 997.2
00 14.08 Ю 1 10 км ясно +20.6 +15.2 71 +25 +25 комфорт 1011.6 994.7
03 14.08 Ю 1 10 км ясно +18.3 +15.2 82 +20 +20 1014.7 997.5
06 14.08 ЮЗ 2 10 км ясно +24.7 +16.4 60 +28 +34 душно 1014.2 997.4 +17.6
09 14.08 Ю 3 10 км 3/0
[Ci fib]
+29.3 +14.3 40 +31 +42 жарко 1012.7 996.1
12 14.08 ЮВ 3 10 км 3/0
[Ci fib]
+31.6 +13.3 33 +33 +40 жарко 1008.3 992.0
15 14.08 ЮВ 4 10 км ясно +31.1 +12.4 32 +32 +33 жарко 1009.2 992.8
18 14.08 ЮВ 1 10 км ясно +24.5 +13.4 50 +27 +27 жарко 1009.2 992.4 +32.2
21 14.08 штиль 0 10 км ясно +18.1 +14.2 78 +18 +18 1010.0 992.8
00 15.08 штиль 0 10 км ясно +15.8 +12.5 81 +16 +16 1007.8 990.7
03 15.08 штиль 0 10 км 3/0
[Ci sp]
+14.5 +12.2 86 +14 +14 1008.8 991.5
06 15.08 З 1 10 км 3/0
[Ac trans Ci fib]
+20.6 +13.3 63 +24 +30 комфорт 1008.8 991.8 +13.9
09 15.08 С 2 10 км 4/0
[Ci fib]
+27.5 +11.5 37 +28 +41 жарко 1007.6 991.0
12 15.08 С 1 10 км 9/0
[Ac As Ci sp]
+29.1 +12.9 37 +30 +32 жарко 1004.3 988.0
15 15.08 С 4 10 км 10/4 600 м
[Cb cap Ac As]
+22.6 +16.4 68 +27 +27 душно 1008.5 991.6
18 15.08 С 2 10 км 9/0
[Ci fib]
+19.4 +15.3 77 +22 +22 комфорт 1010.1 993.0 +30.3
21 15.08 С 2 10 км 8/0
[Ac trans Ci fib]
+16.8 +13.5 81 +17 +17 1010.6 993.4
00 16.08 С 2 10 км 9/9 600 м
[Sc]
+17.2 +14.3 83 +18 +18 1007.7 990.7
03 16.08 СЗ 1 10 км 10/0
[Cs]
+16.3 +13.2 82 +17 +17 1010.4 993.1
06 16.08 СЗ 2 10 км 9/9 870 м
[Sc]
+17.1 +13.8 81 +17 +18 1010.6 993.4 +16.3
09 16.08 СЗ 2 10 км 9/9 870 м
[Sc]
+17.6 +14.1 80 +18 +19 1010.8 993.6
12 16.08 СЗ 3 10 км 10/10 840 м
[Sc]
+18.7 +13.8 73 +20 +20 1009.0 992.0
15 16.08 СЗ 4 10 км 10/10 870 м
[Sc]
+17.1 +13.5 79 +17 +17 1011.4 994.2
18 16.08 СЗ 4 10 км 10/10 840 м
[Sc]
+16.3 +12.8 80 +16 +16 1012.2 994.9 +19.4
21 16.08 СЗ 3 10 км 10/10 800 м
[Sc]
+16.1 +12.8 81 +16 +16 1012.3 995.0
00 17.08 СЗ 2 10 км 10/10 800 м
[Sc]
+15.3 +12.2 82 +15 +15 1009.2 992.0
03 17.08 СЗ 1 10 км 10/10 800 м
[Sc]
+14.9 +12.0 83 +15 +15 1011.0 993.6
06 17.08 СЗ 2 10 км 10/10 800 м
[Sc]
+14.9 +12.0 83 +15 +15 1011.9 994.5 +14.9
09 17.08 ЮЗ 2 10 км 10/10 660 м
[Cb cap]
+16.8 +12.8 77 +17 +17 1012.0 994.7
12 17.08 СЗ 3 10 км 10/10 600 м
[Cb cap]
+18.8 +13.0 69 +20 +20 1009.0 992.0
15 17.08 СЗ 3 10 км 10/10 630 м
[Cb cap]
+17.7 +12.5 72 +18 +18 1012.3 995.1
18 17.08 СЗ 2 10 км 10/10 840 м
[Sc]
+16.8 +12.5 76 +17 +17 1012.6 995.3 +19.0
21 17.08 штиль 0 10 км ясно +14.3 +11.5 83
00 18.08 штиль 0 10 км 8/0
[Ac trans]
+14.9 +12.6 86 +15 +15 1010.5 993.3
03 18.08 штиль 0 10 км 7 баллов +15.1 +12.8 86
06 18.08 СЗ 2 10 км ясно +18.4 +12.4 68 +19 +25 1013.8 996.6 +14.3
09 18.08 СЗ 3 10 км 8/8 1020 м
[Cu hum]
+22.0 +9.4 45 +24 +26 комфорт 1014.0 997.0
12 18.08 СЗ 4 10 км 6/6 1080 м
[Cu hum]
+24.4 +8.8 37 +25 +28 комфорт 1011.4 994.7
15 18.08 СЗ 2 10 км 4 балла +24.3 +8.3 36
18 18.08 штиль 0 10 км ясно +17.4 +11.0 66 +17 +17 1016.0 998.7 +24.5
21 18.08 штиль 0 10 км ясно +12.6 +10.0 84
00 19.08 штиль 0 4000 м дымка ясно +10.9 +9.7 92 +10 +10 1014.9 997.3
03 19.08 штиль 0 4000 м дымка ясно +9.5 +8.4 93
06 19.08 штиль 0 10 км ясно +19.2 +12.0 63 +9.5
09 19.08 СЗ 2 10 км ясно +25.5 +9.3 36

 

Местоположение метеостанции Новомиргород (Кировоградская область, Украина): широта 48.78 долгота 31.63 высота над уровнем моря 146 м.

В архиве по умолчанию представлена погода в Новомиргороде за последнюю неделю. Архивные данные за месяц целиком и за предыдущие месяцы, начиная с января 2011 года, Вы можете получить, выбрав интересующий диапазон дат из раскрывающегося списка и нажав кнопку "Ввод!".


*Определитесь, кто Вы:
робот инопланетянин человек

Внимание! Время в таблицах - всемирное. Для получения местного времени необходимо прибавить поправку, которая равна 2 ч.

Смотрите также архив погоды в соседних городах и на ближайших метеорологических станциях:

Погода в Ротмистровке (Черкасская область, Украина) (39 км)
Погода в Кропивницком (Кировоградская область, Украина) (51 км)
Погода в Звенигородке (Черкасская область, Украина) (63 км)
Погода в Помошной (Кировоградская область, Украина) (63 км)
Погода в Знаменке (Кировоградская область, Украина) (77 км)
Погода в Черкассах (Черкасская область, Украина) (77 км)
Погода в Чигирине (Черкасская область, Украина) (83 км)
Погода в Бобринце (Кировоградская область, Украина) (88 км)
Погода в Первомайске (Николаевская область, Украина) (100 км)
Погода в Умани (Черкасская область, Украина) (103 км)

Пояснения к столбцам:

Ветер - указаны скорость ветра в м/с - средняя за 10 мин, порывы в срок и между сроками (в фигурных скобках) и направление, откуда дует ветер: С - северный, СВ - северо-восточный, В - восточный, ЮВ - юго-восточный, Ю - южный, ЮЗ - юго-западный, З - западный, СЗ - северо-западный.
Видимость - горизонтальная дальность видимости в метрах или километрах. При видимости от 1 до 10 км при отсутствии осадков обычно наблюдается дымка, при ухудшении видимости до 1 км и менее - туман. В сухую погоду видимость может ухудшаться дымом, пылью или мглою.
Явления - указаны атмосферные явления, наблюдавшиеся в срок или в последний час перед сроком; фигурными скобками обозначены явления, наблюдавшиеся между сроками (за 1-3 часа до срока); квадратными скобками обозначены град или гололедные отложения с указанием их диаметра в мм.
Облачность - указаны через наклонную черту общая и нижняя облачность в баллах и высота нижней границы облаков в метрах; квадратными скобками обозначены формы облаков: Ci - перистые, Cs - перисто-слоистые, Cc - перисто-кучевые, Ac - высококучевые, As - высокослоистые, Sc - слоисто-кучевые, Ns - слоисто-дождевые, Cu - кучевые, Cb - кучево-дождевые. Подробнее классификацию облаков см. в Атласе облаков (PDF).
T - Температура воздуха - температура, измеренная на высоте 2 м над землей.
Td - Температура точки росы - температура, при понижении до которой содержащийся в воздухе водяной пар достигнет насыщения.
f - Относительная влажность воздуха - влажноcть воздуха, измеренная на высоте 2 м над землей.
Te - Эффективная температура - температура, которую ощущает одетый по сезону человек в тени. Характеристика душности погоды. При расчете учитывается влияние влажности воздуха и скорости ветра на теплоощущения человека.
Tes - Эффективная температура на солнце - температура, которую ощущает человек, с поправкой на солнечный нагрев. Характеристика знойности погоды. Зависит от высоты солнца над горизонтом, облачности и скорости ветра. Ночью, в пасмурную погоду, а также при ветре 12 м/с и более поправка равна нулю.
P - Атмосферное давление - приведенное к уровню моря атмосферное давление.
Po - Атмосферное давление - измеренное на уровне метеостанции атмосферное давление.
Tmin - Минимальная температура - минимум температуры воздуха на высоте 2 м над землей.
Tmax - Максимальная температура - максимум температуры воздуха на высоте 2 м над землей.
R - Количество осадков - Количество выпавших осадков за период времени, мм. При наведении курсора мыши на число - период времени, за который выпало указанное количество осадков.
R24 - Количество осадков - Количество выпавших осадков за 24 часа, мм.
S - Снежный покров - Высота снежного покрова, см. При наведении курсора мыши на число - состояние снежного покрова и степень покрытия местности в баллах.